Time,TemperatureF,DewpointF,PressureIn,WindDirection,WindDirectionDegrees,WindSpeedMPH,WindSpeedGustMPH,Humidity,HourlyPrecipIn,Conditions,Clouds,dailyrainin,SoftwareType,DateUTC
2013-09-15 00:01:00,63.0,58.4,30.01,SSE,160,0.0,0.0,85,0.00,,CLR,0.00,VWS V13.01,2013-09-15 04:01:00,
2013-09-15 00:02:00,63.0,58.4,30.01,SSE,160,0.0,0.0,85,0.00,,CLR,0.00,VWS V13.01,2013-09-15 04:02:00,
2013-09-15 00:04:00,63.0,58.4,30.01,SSE,160,0.0,0.0,85,0.00,,CLR,0.00,VWS V13.01,2013-09-15 04:04:00,
2013-09-15 00:09:00,63.0,58.4,30.01,SSE,160,0.0,0.0,85,0.00,,CLR,0.00,VWS V13.01,2013-09-15 04:09:00,
2013-09-15 00:14:00,63.0,58.4,30.01,SSE,160,0.0,0.0,85,0.00,,CLR,0.00,VWS V13.01,2013-09-15 04:14:00,
2013-09-15 00:19:00,62.9,58.3,30.02,SSE,160,0.0,0.0,85,0.00,,CLR,0.00,VWS V13.01,2013-09-15 04:19:00,
2013-09-15 00:24:00,62.9,58.3,30.01,SSE,160,0.0,0.0,85,0.00,,CLR,0.00,VWS V13.01,2013-09-15 04:24:00,
2013-09-15 00:29:00,62.8,58.2,30.01,SSE,160,0.0,0.0,85,0.00,,CLR,0.00,VWS V13.01,2013-09-15 04:29:00,
2013-09-15 00:34:00,62.7,58.5,30.01,SSE,160,0.0,0.0,86,0.00,,CLR,0.00,VWS V13.01,2013-09-15 04:34:00,
2013-09-15 00:39:00,62.6,58.4,30.01,SSE,160,0.0,0.0,86,0.00,,CLR,0.00,VWS V13.01,2013-09-15 04:39:00,
2013-09-15 00:44:00,62.5,58.3,30.02,SSE,160,0.0,0.0,86,0.00,,CLR,0.00,VWS V13.01,2013-09-15 04:44:00,
2013-09-15 00:49:00,62.4,58.2,30.02,SSE,160,0.0,0.0,86,0.00,,CLR,0.00,VWS V13.01,2013-09-15 04:49:00,
2013-09-15 00:54:00,62.4,58.2,30.02,SSE,160,0.0,0.0,86,0.00,,CLR,0.00,VWS V13.01,2013-09-15 04:54:00,
2013-09-15 00:59:00,62.2,58.0,30.02,SSE,160,0.0,0.0,86,0.00,,CLR,0.00,VWS V13.01,2013-09-15 04:59:00,
2013-09-15 01:04:00,62.2,58.3,30.02,SSE,160,0.0,0.0,87,0.00,,CLR,0.00,VWS V13.01,2013-09-15 05:04:00,
2013-09-15 01:09:00,62.1,58.2,30.02,SSE,160,0.0,0.0,87,0.00,,CLR,0.00,VWS V13.01,2013-09-15 05:09:00,
2013-09-15 01:14:00,62.0,58.1,30.02,SSE,160,0.0,0.0,87,0.00,,CLR,0.00,VWS V13.01,2013-09-15 05:14:00,
2013-09-15 01:19:00,62.0,58.1,30.02,SSE,160,0.0,0.0,87,0.00,,CLR,0.00,VWS V13.01,2013-09-15 05:19:00,
2013-09-15 01:24:00,61.9,58.0,30.02,SSE,160,0.0,0.0,87,0.00,,CLR,0.00,VWS V13.01,2013-09-15 05:24:00,
2013-09-15 01:29:00,61.9,58.3,30.03,SSE,160,0.0,0.0,88,0.00,,CLR,0.00,VWS V13.01,2013-09-15 05:29:00,
2013-09-15 01:34:00,61.8,58.2,30.03,SSE,160,0.0,0.0,88,0.00,,CLR,0.00,VWS V13.01,2013-09-15 05:34:00,
2013-09-15 01:39:00,61.8,58.2,30.03,SSE,160,0.0,0.0,88,0.00,,CLR,0.00,VWS V13.01,2013-09-15 05:39:00,
2013-09-15 01:45:00,61.7,58.1,30.03,SSE,160,0.0,0.0,88,0.00,,CLR,0.00,VWS V13.01,2013-09-15 05:45:00,
2013-09-15 01:50:00,61.6,58.0,30.03,SSE,160,0.0,0.0,88,0.00,,CLR,0.00,VWS V13.01,2013-09-15 05:50:00,
2013-09-15 01:55:00,61.4,57.8,30.03,SSE,160,0.0,0.0,88,0.00,,CLR,0.00,VWS V13.01,2013-09-15 05:55:00,
2013-09-15 02:00:00,61.4,57.8,30.03,SSE,160,0.0,0.0,88,0.00,,CLR,0.00,VWS V13.01,2013-09-15 06:00:00,
2013-09-15 02:05:00,61.3,57.7,30.03,SSE,160,0.0,0.0,88,0.00,,CLR,0.00,VWS V13.01,2013-09-15 06:05:00,
2013-09-15 02:10:00,61.2,57.9,30.02,SSE,160,0.0,0.0,89,0.00,,CLR,0.00,VWS V13.01,2013-09-15 06:10:00,
2013-09-15 02:15:00,61.1,57.8,30.03,SSE,160,0.0,0.0,89,0.00,,CLR,0.00,VWS V13.01,2013-09-15 06:15:00,
2013-09-15 02:20:00,61.0,57.7,30.03,SSE,160,0.0,0.0,89,0.00,,CLR,0.00,VWS V13.01,2013-09-15 06:20:00,
2013-09-15 02:25:00,61.1,58.2,30.03,SSE,160,0.0,0.0,90,0.00,,CLR,0.00,VWS V13.01,2013-09-15 06:25:00,
2013-09-15 02:30:00,61.2,58.2,30.03,SSE,160,0.0,0.0,90,0.00,,CLR,0.00,VWS V13.01,2013-09-15 06:30:00,
2013-09-15 02:35:00,61.3,58.3,30.03,SSE,160,0.0,0.0,90,0.00,,CLR,0.00,VWS V13.01,2013-09-15 06:35:00,
2013-09-15 02:40:00,61.4,58.5,30.02,SSE,160,0.0,0.0,90,0.00,,FEW050,0.00,VWS V13.01,2013-09-15 06:40:00,
2013-09-15 02:45:00,61.6,58.6,30.03,SSE,160,0.0,0.0,90,0.00,,FEW050,0.00,VWS V13.01,2013-09-15 06:45:00,
2013-09-15 02:50:00,61.7,58.7,30.03,SSE,160,0.0,0.0,90,0.00,,FEW050,0.00,VWS V13.01,2013-09-15 06:50:00,
2013-09-15 02:55:00,61.6,58.6,30.03,SSE,160,0.0,0.0,90,0.00,,FEW050,0.00,VWS V13.01,2013-09-15 06:55:00,
2013-09-15 03:00:00,61.5,58.5,30.02,SSE,160,0.0,0.0,90,0.00,,FEW050,0.00,VWS V13.01,2013-09-15 07:00:00,
2013-09-15 03:05:00,61.3,58.3,30.03,SSE,160,0.0,0.0,90,0.00,,FEW050,0.00,VWS V13.01,2013-09-15 07:05:00,
2013-09-15 03:10:00,61.2,58.2,30.02,SSE,160,0.0,0.0,90,0.00,,FEW050,0.00,VWS V13.01,2013-09-15 07:10:00,
2013-09-15 03:15:00,61.1,58.2,30.02,SSE,160,0.0,0.0,90,0.00,,FEW050,0.00,VWS V13.01,2013-09-15 07:15:00,
2013-09-15 03:20:00,61.1,58.2,30.02,SSE,160,0.0,0.0,90,0.00,,FEW050,0.00,VWS V13.01,2013-09-15 07:20:00,
2013-09-15 03:25:00,61.0,58.0,30.02,SSE,160,0.0,0.0,90,0.00,,FEW050,0.00,VWS V13.01,2013-09-15 07:25:00,
2013-09-15 03:30:00,60.9,58.0,30.03,SSE,160,0.0,0.0,90,0.00,,FEW050,0.00,VWS V13.01,2013-09-15 07:30:00,
2013-09-15 03:35:00,60.9,58.0,30.03,SSE,160,0.0,0.0,90,0.00,,FEW048,0.00,VWS V13.01,2013-09-15 07:35:00,
2013-09-15 03:40:00,60.8,58.2,30.03,SSE,160,0.0,0.0,91,0.00,,FEW048,0.00,VWS V13.01,2013-09-15 07:40:00,
2013-09-15 03:45:00,60.7,58.1,30.02,SSE,160,0.0,0.0,91,0.00,,FEW048,0.00,VWS V13.01,2013-09-15 07:45:00,
2013-09-15 03:50:00,60.5,57.9,30.02,SSE,160,0.0,0.0,91,0.00,,FEW048,0.00,VWS V13.01,2013-09-15 07:50:00,
2013-09-15 03:55:00,60.4,57.8,30.02,SSE,160,0.0,0.0,91,0.00,,FEW048,0.00,VWS V13.01,2013-09-15 07:55:00,
2013-09-15 04:00:00,60.4,57.8,30.02,SSE,160,0.0,0.0,91,0.00,,FEW048,0.00,VWS V13.01,2013-09-15 08:00:00,
2013-09-15 04:05:00,60.3,57.7,30.02,SSE,160,0.0,0.0,91,0.00,,FEW048,0.00,VWS V13.01,2013-09-15 08:05:00,
2013-09-15 04:10:00,60.3,57.7,30.02,SSE,160,0.0,0.0,91,0.00,,FEW048,0.00,VWS V13.01,2013-09-15 08:10:00,
2013-09-15 04:15:00,60.3,57.7,30.02,SSE,160,0.0,0.0,91,0.00,,FEW048,0.00,VWS V13.01,2013-09-15 08:15:00,
2013-09-15 04:20:00,60.3,58.0,30.02,SSE,160,0.0,0.0,92,0.00,,FEW048,0.00,VWS V13.01,2013-09-15 08:20:00,
2013-09-15 04:25:00,60.3,58.0,30.02,SSE,160,0.0,0.0,92,0.00,,FEW048,0.00,VWS V13.01,2013-09-15 08:25:00,
2013-09-15 04:30:00,60.3,58.0,30.03,SSE,160,0.0,0.0,92,0.00,,FEW048,0.00,VWS V13.01,2013-09-15 08:30:00,
2013-09-15 04:35:00,60.2,57.9,30.03,SSE,160,0.0,0.0,92,0.00,,CLR,0.00,VWS V13.01,2013-09-15 08:35:00,
2013-09-15 04:40:00,60.2,57.9,30.03,SSE,160,0.0,0.0,92,0.00,,CLR,0.00,VWS V13.01,2013-09-15 08:40:00,
2013-09-15 04:45:00,60.2,57.9,30.03,SSE,160,0.0,0.0,92,0.00,,CLR,0.00,VWS V13.01,2013-09-15 08:45:00,
2013-09-15 04:50:00,60.3,58.0,30.03,SSE,160,0.0,0.0,92,0.00,,CLR,0.00,VWS V13.01,2013-09-15 08:50:00,
2013-09-15 04:55:00,60.3,58.0,30.03,SSE,160,0.0,0.0,92,0.00,,CLR,0.00,VWS V13.01,2013-09-15 08:55:00,
2013-09-15 05:00:00,60.3,58.0,30.03,SSE,160,0.0,0.0,92,0.00,,CLR,0.00,VWS V13.01,2013-09-15 09:00:00,
2013-09-15 05:05:00,60.4,58.1,30.03,SSE,160,0.0,0.0,92,0.00,,CLR,0.00,VWS V13.01,2013-09-15 09:05:00,
2013-09-15 05:10:00,60.5,58.2,30.03,SSE,160,0.0,0.0,92,0.00,,CLR,0.00,VWS V13.01,2013-09-15 09:10:00,
2013-09-15 05:15:00,60.5,58.2,30.03,SSE,160,0.0,0.0,92,0.00,,CLR,0.00,VWS V13.01,2013-09-15 09:15:00,
2013-09-15 05:20:00,60.5,58.2,30.03,SSE,160,0.0,0.0,92,0.00,,CLR,0.00,VWS V13.01,2013-09-15 09:20:00,
2013-09-15 05:25:00,60.6,58.3,30.03,SSE,160,0.0,0.0,92,0.00,,CLR,0.00,VWS V13.01,2013-09-15 09:25:00,
2013-09-15 05:30:00,60.8,58.5,30.03,SSE,160,0.0,0.0,92,0.00,,CLR,0.00,VWS V13.01,2013-09-15 09:30:00,
2013-09-15 05:35:00,60.9,58.6,30.03,SSE,159,0.0,0.0,92,0.00,,CLR,0.00,VWS V13.01,2013-09-15 09:35:00,
2013-09-15 05:42:00,61.0,58.7,30.03,SSE,159,0.0,0.0,92,0.00,,CLR,0.00,VWS V13.01,2013-09-15 09:42:00,
2013-09-15 05:47:00,61.1,58.8,30.03,SSE,159,0.0,0.0,92,0.00,,CLR,0.00,VWS V13.01,2013-09-15 09:47:00,
2013-09-15 05:52:00,61.3,59.3,30.03,SSE,159,0.0,0.0,93,0.00,,BKN015,0.00,VWS V13.01,2013-09-15 09:52:00,
2013-09-15 05:57:00,61.5,59.2,30.04,SSE,159,0.0,0.0,92,0.00,,BKN015,0.00,VWS V13.01,2013-09-15 09:57:00,
2013-09-15 06:02:00,61.6,59.3,30.04,SSE,159,0.0,0.0,92,0.00,,BKN015,0.00,VWS V13.01,2013-09-15 10:02:00,
2013-09-15 06:07:00,61.8,59.8,30.04,SSE,159,0.0,0.0,93,0.00,,BKN015,0.00,VWS V13.01,2013-09-15 10:07:00,
2013-09-15 06:12:00,61.9,59.9,30.04,SSE,159,0.0,0.0,93,0.00,,BKN015,0.00,VWS V13.01,2013-09-15 10:12:00,
2013-09-15 06:17:00,62.0,60.0,30.04,SSE,159,0.0,0.0,93,0.00,,BKN015,0.00,VWS V13.01,2013-09-15 10:17:00,
2013-09-15 06:22:00,62.1,60.1,30.04,SSE,159,0.0,0.0,93,0.00,,BKN015,0.00,VWS V13.01,2013-09-15 10:22:00,
2013-09-15 06:27:00,62.3,60.2,30.04,SSE,159,0.0,2.0,93,0.00,,BKN015,0.00,VWS V13.01,2013-09-15 10:27:00,
2013-09-15 06:32:00,62.5,60.5,30.04,East,84,1.0,3.0,93,0.00,,BKN015,0.00,VWS V13.01,2013-09-15 10:32:00,
2013-09-15 06:37:00,62.7,60.7,30.05,East,81,2.0,2.0,93,0.00,,OVC013,0.00,VWS V13.01,2013-09-15 10:37:00,
2013-09-15 06:43:00,62.9,60.8,30.05,East,81,0.0,2.0,93,0.00,,OVC013,0.00,VWS V13.01,2013-09-15 10:43:00,
2013-09-15 06:48:00,63.1,61.0,30.05,East,81,0.0,2.0,93,0.00,,OVC013,0.00,VWS V13.01,2013-09-15 10:48:00,
2013-09-15 06:53:00,63.2,61.2,30.05,East,81,0.0,0.0,93,0.00,,OVC013,0.00,VWS V13.01,2013-09-15 10:53:00,
2013-09-15 06:58:00,63.4,61.0,30.05,ENE,78,2.0,3.0,92,0.00,,OVC013,0.00,VWS V13.01,2013-09-15 10:58:00,
2013-09-15 07:03:00,63.4,61.0,30.06,ENE,78,2.0,3.0,92,0.00,,OVC013,0.00,VWS V13.01,2013-09-15 11:03:00,
2013-09-15 07:08:00,63.5,61.1,30.07,East,87,0.0,3.0,92,0.00,,OVC013,0.00,VWS V13.01,2013-09-15 11:08:00,
2013-09-15 07:13:00,63.5,61.1,30.07,East,88,0.0,0.0,92,0.00,,OVC013,0.00,VWS V13.01,2013-09-15 11:13:00,
2013-09-15 07:18:00,63.6,61.2,30.07,East,88,0.0,0.0,92,0.00,,OVC013,0.00,VWS V13.01,2013-09-15 11:18:00,
2013-09-15 07:23:00,63.8,61.4,30.07,East,88,0.0,0.0,92,0.00,,OVC013,0.00,VWS V13.01,2013-09-15 11:23:00,
2013-09-15 07:28:00,63.8,61.4,30.07,East,88,0.0,0.0,92,0.00,,OVC013,0.00,VWS V13.01,2013-09-15 11:28:00,
2013-09-15 07:33:00,63.9,61.5,30.07,East,87,0.0,0.0,92,0.00,,OVC013,0.00,VWS V13.01,2013-09-15 11:33:00,
2013-09-15 07:38:00,63.9,61.5,30.07,East,88,0.0,0.0,92,0.00,,OVC009,0.00,VWS V13.01,2013-09-15 11:38:00,
2013-09-15 07:43:00,64.0,61.6,30.08,East,84,0.0,0.0,92,0.00,,OVC009,0.00,VWS V13.01,2013-09-15 11:43:00,
2013-09-15 07:48:00,64.1,61.7,30.08,East,82,0.0,0.0,92,0.00,,OVC009,0.00,VWS V13.01,2013-09-15 11:48:00,
2013-09-15 07:53:00,64.1,61.7,30.08,ENE,78,1.0,3.0,92,0.00,,OVC009,0.00,VWS V13.01,2013-09-15 11:53:00,
2013-09-15 07:58:00,64.2,61.8,30.08,ENE,78,0.0,0.0,92,0.00,,OVC009,0.00,VWS V13.01,2013-09-15 11:58:00,
2013-09-15 08:03:00,64.3,61.9,30.08,ENE,78,0.0,1.0,92,0.00,,OVC009,0.00,VWS V13.01,2013-09-15 12:03:00,
2013-09-15 08:08:00,64.3,61.9,30.08,ENE,69,0.0,0.0,92,0.00,,OVC009,0.00,VWS V13.01,2013-09-15 12:08:00,
2013-09-15 08:13:00,64.4,62.0,30.08,ENE,69,0.0,0.0,92,0.00,,OVC009,0.00,VWS V13.01,2013-09-15 12:13:00,
2013-09-15 08:18:00,64.5,62.1,30.08,ENE,75,3.0,3.0,92,0.00,,OVC009,0.00,VWS V13.01,2013-09-15 12:18:00,
2013-09-15 08:23:00,64.7,62.0,30.08,ENE,75,2.0,4.0,91,0.00,,OVC009,0.00,VWS V13.01,2013-09-15 12:23:00,
2013-09-15 08:28:00,64.9,62.2,30.08,ENE,75,3.0,4.0,91,0.00,,OVC009,0.00,VWS V13.01,2013-09-15 12:28:00,
2013-09-15 08:33:00,65.1,62.7,30.08,NE,53,2.0,5.0,92,0.00,,OVC009,0.00,VWS V13.01,2013-09-15 12:33:00,
2013-09-15 08:38:00,65.2,62.5,30.08,East,92,3.0,5.0,91,0.00,,OVC009,0.00,VWS V13.01,2013-09-15 12:38:00,
2013-09-15 08:43:00,65.3,62.6,30.09,East,79,4.0,4.0,91,0.00,,OVC009,0.00,VWS V13.01,2013-09-15 12:43:00,
2013-09-15 08:48:00,65.4,62.7,30.09,East,79,3.0,4.0,91,0.00,,OVC009,0.00,VWS V13.01,2013-09-15 12:48:00,
2013-09-15 08:53:00,65.6,62.9,30.09,ENE,75,2.0,3.0,91,0.00,,OVC009,0.00,VWS V13.01,2013-09-15 12:53:00,
2013-09-15 08:58:00,65.8,63.1,30.09,East,95,3.0,4.0,91,0.00,,OVC009,0.00,VWS V13.01,2013-09-15 12:58:00,
2013-09-15 09:03:00,66.0,63.3,30.09,ENE,71,2.0,4.0,91,0.00,,OVC009,0.00,VWS V13.01,2013-09-15 13:03:00,
2013-09-15 09:08:00,66.2,63.5,30.09,East,88,3.0,5.0,91,0.00,,OVC009,0.00,VWS V13.01,2013-09-15 13:08:00,
2013-09-15 09:13:00,66.5,63.8,30.09,ENE,67,2.0,4.0,91,0.00,,OVC009,0.00,VWS V13.01,2013-09-15 13:13:00,
2013-09-15 09:18:00,66.7,64.0,30.10,ENE,78,2.0,6.0,91,0.00,,OVC009,0.00,VWS V13.01,2013-09-15 13:18:00,
2013-09-15 09:23:00,66.9,64.2,30.10,East,95,3.0,5.0,91,0.00,,OVC009,0.00,VWS V13.01,2013-09-15 13:23:00,
2013-09-15 09:28:00,67.0,64.3,30.10,East,94,4.0,6.0,91,0.00,,OVC009,0.00,VWS V13.01,2013-09-15 13:28:00,
2013-09-15 09:33:00,67.1,64.4,30.10,ESE,102,2.0,5.0,91,0.00,,OVC009,0.00,VWS V13.01,2013-09-15 13:33:00,
2013-09-15 09:38:00,67.2,64.5,30.09,East,84,2.0,4.0,91,0.00,,OVC009,0.00,VWS V13.01,2013-09-15 13:38:00,
2013-09-15 09:43:00,67.3,64.6,30.10,ESE,109,3.0,5.0,91,0.00,,OVC009,0.00,VWS V13.01,2013-09-15 13:43:00,
2013-09-15 09:48:00,67.5,64.8,30.09,ENE,75,3.0,4.0,91,0.00,,OVC009,0.00,VWS V13.01,2013-09-15 13:48:00,
2013-09-15 09:53:00,67.6,64.9,30.10,ESE,111,3.0,5.0,91,0.00,,OVC009,0.00,VWS V13.01,2013-09-15 13:53:00,
2013-09-15 09:58:00,67.7,65.0,30.10,East,95,2.0,5.0,91,0.00,,OVC009,0.00,VWS V13.01,2013-09-15 13:58:00,
2013-09-15 10:03:00,68.0,65.3,30.10,ESE,117,4.0,4.0,91,0.00,,OVC009,0.00,VWS V13.01,2013-09-15 14:03:00,
2013-09-15 10:08:00,68.2,65.5,30.10,ESE,111,1.0,5.0,91,0.00,,OVC009,0.00,VWS V13.01,2013-09-15 14:08:00,
2013-09-15 10:13:00,68.5,65.8,30.11,ESE,113,3.0,5.0,91,0.00,,OVC009,0.00,VWS V13.01,2013-09-15 14:13:00,
2013-09-15 10:18:00,68.7,66.0,30.11,East,94,4.0,7.0,91,0.00,,OVC009,0.00,VWS V13.01,2013-09-15 14:18:00,
2013-09-15 10:23:00,69.0,66.3,30.11,East,86,7.0,7.0,91,0.00,,OVC009,0.00,VWS V13.01,2013-09-15 14:23:00,
2013-09-15 10:28:00,69.2,66.5,30.11,ESE,121,3.0,7.0,91,0.00,,OVC009,0.00,VWS V13.01,2013-09-15 14:28:00,
2013-09-15 10:33:00,69.6,66.9,30.11,SE,126,3.0,4.0,91,0.00,,OVC009,0.00,VWS V13.01,2013-09-15 14:33:00,
2013-09-15 10:38:00,69.8,67.1,30.11,ESE,117,4.0,6.0,91,0.00,,OVC009,0.00,VWS V13.01,2013-09-15 14:38:00,
2013-09-15 10:43:00,70.2,67.4,30.11,ESE,113,4.0,6.0,91,0.00,,OVC009,0.00,VWS V13.01,2013-09-15 14:43:00,
2013-09-15 10:48:00,70.3,67.2,30.11,SE,125,6.0,9.0,90,0.00,,OVC009,0.00,VWS V13.01,2013-09-15 14:48:00,
2013-09-15 10:53:00,70.5,67.4,30.11,ESE,115,6.0,8.0,90,0.00,,OVC009,0.00,VWS V13.01,2013-09-15 14:53:00,
2013-09-15 10:58:00,70.7,67.3,30.11,ESE,109,5.0,6.0,89,0.00,,OVC009,0.00,VWS V13.01,2013-09-15 14:58:00,
2013-09-15 11:03:00,71.1,67.7,30.11,East,83,7.0,10.0,89,0.00,,OVC009,0.00,VWS V13.01,2013-09-15 15:03:00,
2013-09-15 11:08:00,71.3,67.9,30.11,East,97,6.0,10.0,89,0.00,,OVC009,0.00,VWS V13.01,2013-09-15 15:08:00,
2013-09-15 11:13:00,71.3,67.9,30.11,ESE,103,6.0,12.0,89,0.00,,OVC009,0.00,VWS V13.01,2013-09-15 15:13:00,
2013-09-15 11:18:00,71.6,67.9,30.11,East,90,6.0,11.0,88,0.00,,OVC009,0.00,VWS V13.01,2013-09-15 15:18:00,
2013-09-15 11:23:00,71.9,68.2,30.11,SE,144,7.0,11.0,88,0.00,,OVC009,0.00,VWS V13.01,2013-09-15 15:23:00,
2013-09-15 11:28:00,72.0,68.3,30.11,East,88,7.0,10.0,88,0.00,,OVC009,0.00,VWS V13.01,2013-09-15 15:28:00,
2013-09-15 11:33:00,72.2,68.4,30.11,ESE,117,4.0,10.0,88,0.00,,OVC009,0.00,VWS V13.01,2013-09-15 15:33:00,
2013-09-15 11:38:00,72.5,68.8,30.11,ESE,119,4.0,7.0,88,0.00,,OVC011,0.00,VWS V13.01,2013-09-15 15:38:00,
2013-09-15 11:43:00,72.9,68.8,30.11,SSE,159,1.0,6.0,87,0.00,,OVC011,0.00,VWS V13.01,2013-09-15 15:43:00,
2013-09-15 11:48:00,73.2,69.1,30.11,East,82,4.0,8.0,87,0.00,,OVC011,0.00,VWS V13.01,2013-09-15 15:48:00,
2013-09-15 11:53:00,73.6,69.2,30.11,ENE,78,4.0,10.0,86,0.00,,OVC011,0.00,VWS V13.01,2013-09-15 15:53:00,
2013-09-15 11:58:00,73.9,69.1,30.11,SE,134,5.0,7.0,85,0.00,,OVC011,0.00,VWS V13.01,2013-09-15 15:58:00,
2013-09-15 12:03:00,74.1,69.3,30.11,SE,128,3.0,5.0,85,0.00,,OVC011,0.00,VWS V13.01,2013-09-15 16:03:00,
2013-09-15 12:08:00,74.7,69.6,30.10,East,90,6.0,7.0,84,0.00,,OVC011,0.00,VWS V13.01,2013-09-15 16:08:00,
2013-09-15 12:13:00,74.9,69.7,30.10,ESE,123,3.0,7.0,84,0.00,,OVC011,0.00,VWS V13.01,2013-09-15 16:13:00,
2013-09-15 12:18:00,75.6,70.1,30.10,ESE,108,6.0,10.0,83,0.00,,OVC011,0.00,VWS V13.01,2013-09-15 16:18:00,
2013-09-15 12:23:00,75.9,70.0,30.10,ESE,111,3.0,9.0,82,0.00,,OVC011,0.00,VWS V13.01,2013-09-15 16:23:00,
2013-09-15 12:28:00,75.9,70.0,30.10,SE,141,4.0,9.0,82,0.00,,OVC011,0.00,VWS V13.01,2013-09-15 16:28:00,
2013-09-15 12:33:00,76.6,70.7,30.09,East,92,3.0,8.0,82,0.00,,OVC011,0.00,VWS V13.01,2013-09-15 16:33:00,
2013-09-15 12:38:00,76.9,70.6,30.09,SE,145,5.0,9.0,81,0.00,,OVC015,0.00,VWS V13.01,2013-09-15 16:38:00,
2013-09-15 12:43:00,77.9,71.2,30.09,ESE,115,5.0,9.0,80,0.00,,OVC015,0.00,VWS V13.01,2013-09-15 16:43:00,
2013-09-15 12:48:00,77.7,70.7,30.09,East,94,10.0,11.0,79,0.00,,OVC015,0.00,VWS V13.01,2013-09-15 16:48:00,
2013-09-15 12:53:00,77.4,70.4,30.09,East,86,3.0,7.0,79,0.00,,OVC015,0.00,VWS V13.01,2013-09-15 16:53:00,
2013-09-15 12:58:00,77.7,69.9,30.09,SE,131,5.0,10.0,77,0.00,,OVC015,0.00,VWS V13.01,2013-09-15 16:58:00,
2013-09-15 13:03:00,77.8,70.8,30.09,SE,132,1.0,6.0,79,0.00,,OVC015,0.00,VWS V13.01,2013-09-15 17:03:00,
2013-09-15 13:08:00,78.0,70.6,30.09,SSE,161,1.0,10.0,78,0.00,,OVC015,0.00,VWS V13.01,2013-09-15 17:08:00,
2013-09-15 13:15:00,79.1,70.9,30.08,ESE,122,6.0,9.0,76,0.00,,OVC015,0.00,VWS V13.01,2013-09-15 17:15:00,
2013-09-15 13:20:00,79.6,71.0,30.08,SE,134,4.0,6.0,75,0.00,,OVC015,0.00,VWS V13.01,2013-09-15 17:20:00,
2013-09-15 13:25:00,79.9,70.9,30.08,ESE,102,9.0,10.0,74,0.00,,OVC015,0.00,VWS V13.01,2013-09-15 17:25:00,
2013-09-15 13:32:00,79.4,70.4,30.08,NE,51,5.0,5.0,74,0.00,,OVC015,0.00,VWS V13.01,2013-09-15 17:32:00,
2013-09-15 13:37:00,79.6,70.6,30.08,ESE,107,4.0,11.0,74,0.00,,SCT021,0.00,VWS V13.01,2013-09-15 17:37:00,
2013-09-15 13:42:00,79.8,69.6,30.07,ESE,108,3.0,6.0,71,0.00,,SCT021,0.00,VWS V13.01,2013-09-15 17:42:00,
2013-09-15 13:47:00,80.4,70.6,30.07,ESE,118,9.0,11.0,72,0.00,,SCT021,0.00,VWS V13.01,2013-09-15 17:47:00,
2013-09-15 13:52:00,80.4,69.7,30.07,ESE,118,7.0,9.0,70,0.00,,SCT021,0.00,VWS V13.01,2013-09-15 17:52:00,
2013-09-15 13:57:00,80.1,69.9,30.07,SE,143,4.0,6.0,71,0.00,,SCT021,0.00,VWS V13.01,2013-09-15 17:57:00,
2013-09-15 14:03:00,80.1,69.4,30.07,SE,126,7.0,9.0,70,0.00,,SCT021,0.00,VWS V13.01,2013-09-15 18:03:00,
2013-09-15 14:08:00,80.3,69.2,30.07,SSE,150,1.0,8.0,69,0.00,,SCT021,0.00,VWS V13.01,2013-09-15 18:08:00,
2013-09-15 14:13:00,80.9,69.4,30.06,SSE,161,0.0,4.0,68,0.00,,SCT021,0.00,VWS V13.01,2013-09-15 18:13:00,
2013-09-15 14:18:00,82.1,71.3,30.06,ESE,110,5.0,7.0,70,0.00,,SCT021,0.00,VWS V13.01,2013-09-15 18:18:00,
2013-09-15 14:23:00,82.9,69.9,30.06,SE,128,6.0,6.0,65,0.00,,SCT021,0.00,VWS V13.01,2013-09-15 18:23:00,
2013-09-15 14:28:00,82.6,69.2,30.06,SE,144,0.0,7.0,64,0.00,,SCT021,0.00,VWS V13.01,2013-09-15 18:28:00,
2013-09-15 14:33:00,82.5,69.1,30.06,ESE,123,4.0,8.0,64,0.00,,SCT021,0.00,VWS V13.01,2013-09-15 18:33:00,
2013-09-15 14:38:00,82.1,69.2,30.06,ESE,113,3.0,5.0,65,0.00,,FEW033,0.00,VWS V13.01,2013-09-15 18:38:00,
2013-09-15 14:43:00,81.8,68.9,30.05,East,85,1.0,7.0,65,0.00,,FEW033,0.00,VWS V13.01,2013-09-15 18:43:00,
2013-09-15 14:48:00,81.8,68.9,30.05,East,80,3.0,5.0,65,0.00,,FEW033,0.00,VWS V13.01,2013-09-15 18:48:00,
2013-09-15 14:53:00,82.1,69.2,30.05,ESE,114,0.0,5.0,65,0.00,,FEW033,0.00,VWS V13.01,2013-09-15 18:53:00,
2013-09-15 14:58:00,82.5,69.6,30.05,ENE,71,2.0,3.0,65,0.00,,FEW033,0.00,VWS V13.01,2013-09-15 18:58:00,
2013-09-15 15:03:00,82.7,70.2,30.05,ESE,119,5.0,6.0,66,0.00,,FEW033,0.00,VWS V13.01,2013-09-15 19:03:00,
2013-09-15 15:08:00,82.4,69.5,30.05,ENE,71,6.0,6.0,65,0.00,,FEW033,0.00,VWS V13.01,2013-09-15 19:08:00,
2013-09-15 15:13:00,82.3,68.9,30.05,SE,141,2.0,8.0,64,0.00,,FEW033,0.00,VWS V13.01,2013-09-15 19:13:00,
2013-09-15 15:18:00,82.1,68.7,30.05,East,86,2.0,4.0,64,0.00,,FEW033,0.00,VWS V13.01,2013-09-15 19:18:00,
2013-09-15 15:23:00,82.4,69.0,30.05,SE,128,3.0,6.0,64,0.00,,FEW033,0.00,VWS V13.01,2013-09-15 19:23:00,
2013-09-15 15:28:00,82.5,68.6,30.04,ENE,63,6.0,6.0,63,0.00,,FEW033,0.00,VWS V13.01,2013-09-15 19:28:00,
2013-09-15 15:33:00,82.4,69.0,30.04,East,101,0.0,5.0,64,0.00,,FEW033,0.00,VWS V13.01,2013-09-15 19:33:00,
2013-09-15 15:38:00,82.7,69.3,30.04,SE,133,3.0,5.0,64,0.00,,BKN048,0.00,VWS V13.01,2013-09-15 19:38:00,
2013-09-15 15:43:00,82.8,68.9,30.04,East,94,0.0,3.0,63,0.00,,BKN048,0.00,VWS V13.01,2013-09-15 19:43:00,
2013-09-15 15:48:00,82.8,68.9,30.04,ESE,119,2.0,4.0,63,0.00,,BKN048,0.00,VWS V13.01,2013-09-15 19:48:00,
2013-09-15 15:53:00,82.8,68.9,30.04,ENE,63,0.0,6.0,63,0.00,,BKN048,0.00,VWS V13.01,2013-09-15 19:53:00,
2013-09-15 15:58:00,82.8,68.9,30.04,East,84,5.0,7.0,63,0.00,,BKN048,0.00,VWS V13.01,2013-09-15 19:58:00,
2013-09-15 16:03:00,82.5,68.6,30.03,ESE,103,4.0,5.0,63,0.00,,BKN048,0.00,VWS V13.01,2013-09-15 20:03:00,
2013-09-15 16:08:00,82.5,69.1,30.03,ENE,72,3.0,5.0,64,0.00,,BKN048,0.00,VWS V13.01,2013-09-15 20:08:00,
2013-09-15 16:13:00,82.4,69.0,30.03,ENE,76,2.0,4.0,64,0.00,,BKN048,0.00,VWS V13.01,2013-09-15 20:13:00,
2013-09-15 16:18:00,82.5,69.1,30.03,ENE,76,2.0,4.0,64,0.00,,BKN048,0.00,VWS V13.01,2013-09-15 20:18:00,
2013-09-15 16:23:00,82.5,69.1,30.03,ENE,76,1.0,4.0,64,0.00,,BKN048,0.00,VWS V13.01,2013-09-15 20:23:00,
2013-09-15 16:28:00,82.7,69.3,30.03,ENE,58,1.0,4.0,64,0.00,,BKN048,0.00,VWS V13.01,2013-09-15 20:28:00,
2013-09-15 16:33:00,83.2,69.8,30.03,ENE,71,2.0,3.0,64,0.00,,BKN048,0.00,VWS V13.01,2013-09-15 20:33:00,
2013-09-15 16:38:00,83.5,69.1,30.03,East,84,1.0,5.0,62,0.00,,OVC060,0.00,VWS V13.01,2013-09-15 20:38:00,
2013-09-15 16:45:00,83.9,69.5,30.02,East,94,5.0,5.0,62,0.00,,OVC060,0.00,VWS V13.01,2013-09-15 20:45:00,
2013-09-15 16:50:00,83.7,69.3,30.02,East,100,2.0,4.0,62,0.00,,OVC060,0.00,VWS V13.01,2013-09-15 20:50:00,
2013-09-15 16:55:00,83.6,69.2,30.02,ENE,70,4.0,5.0,62,0.00,,OVC060,0.00,VWS V13.01,2013-09-15 20:55:00,
2013-09-15 17:00:00,83.6,69.2,30.02,SE,128,3.0,4.0,62,0.00,,OVC060,0.00,VWS V13.01,2013-09-15 21:00:00,
2013-09-15 17:05:00,83.7,68.8,30.02,East,97,1.0,1.0,61,0.00,,OVC060,0.00,VWS V13.01,2013-09-15 21:05:00,
2013-09-15 17:10:00,84.2,69.3,30.02,East,97,1.0,3.0,61,0.00,,OVC060,0.00,VWS V13.01,2013-09-15 21:10:00,
2013-09-15 17:15:00,84.2,69.3,30.02,East,79,3.0,4.0,61,0.00,,OVC060,0.00,VWS V13.01,2013-09-15 21:15:00,
2013-09-15 17:20:00,83.9,69.0,30.02,ESE,107,0.0,3.0,61,0.00,,OVC060,0.00,VWS V13.01,2013-09-15 21:20:00,
2013-09-15 17:25:00,83.8,69.9,30.02,ESE,107,0.0,0.0,63,0.00,,OVC060,0.00,VWS V13.01,2013-09-15 21:25:00,
2013-09-15 17:31:00,83.4,69.9,30.02,ESE,107,0.0,0.0,64,0.00,,OVC060,0.00,VWS V13.01,2013-09-15 21:31:00,
2013-09-15 17:51:00,83.3,70.3,30.02,ESE,107,0.0,0.0,65,0.00,,BKN065,0.00,VWS V13.01,2013-09-15 21:51:00,
2013-09-15 17:56:00,83.6,71.1,30.02,ESE,107,0.0,0.0,66,0.00,,BKN065,0.00,VWS V13.01,2013-09-15 21:56:00,
2013-09-15 18:01:00,83.8,70.8,30.02,ESE,107,0.0,0.0,65,0.00,,BKN065,0.00,VWS V13.01,2013-09-15 22:01:00,
2013-09-15 18:06:00,83.7,69.8,30.02,ESE,107,0.0,0.0,63,0.00,,BKN065,0.00,VWS V13.01,2013-09-15 22:06:00,
2013-09-15 18:12:00,83.7,69.8,30.02,ESE,107,0.0,0.0,63,0.00,,BKN065,0.00,VWS V13.01,2013-09-15 22:12:00,
2013-09-15 18:17:00,83.8,69.4,30.02,ESE,107,0.0,0.0,62,0.00,,BKN065,0.00,VWS V13.01,2013-09-15 22:17:00,
2013-09-15 18:22:00,83.8,70.3,30.02,ESE,107,0.0,0.0,64,0.00,,BKN065,0.00,VWS V13.01,2013-09-15 22:22:00,
2013-09-15 18:27:00,83.6,70.6,30.02,ESE,107,0.0,0.0,65,0.00,,BKN065,0.00,VWS V13.01,2013-09-15 22:27:00,
2013-09-15 18:32:00,83.3,72.1,30.02,ESE,107,0.0,0.0,69,0.00,,BKN065,0.00,VWS V13.01,2013-09-15 22:32:00,
2013-09-15 18:37:00,83.2,72.4,30.02,ESE,107,0.0,0.0,70,0.00,,FEW065,0.00,VWS V13.01,2013-09-15 22:37:00,
2013-09-15 18:42:00,83.1,72.3,30.02,ESE,107,0.0,0.0,70,0.00,,FEW065,0.00,VWS V13.01,2013-09-15 22:42:00,
2013-09-15 18:47:00,82.9,72.1,30.02,ESE,107,0.0,0.0,70,0.00,,FEW065,0.00,VWS V13.01,2013-09-15 22:47:00,
2013-09-15 18:52:00,82.3,72.0,30.02,ESE,107,0.0,0.0,71,0.00,,FEW065,0.00,VWS V13.01,2013-09-15 22:52:00,
2013-09-15 18:57:00,81.5,71.6,30.03,ESE,107,0.0,0.0,72,0.00,,FEW065,0.00,VWS V13.01,2013-09-15 22:57:00,
2013-09-15 19:02:00,80.6,71.6,30.03,ESE,107,0.0,0.0,74,0.00,,FEW065,0.00,VWS V13.01,2013-09-15 23:02:00,
2013-09-15 19:07:00,79.8,71.2,30.03,ESE,107,0.0,0.0,75,0.00,,FEW065,0.00,VWS V13.01,2013-09-15 23:07:00,
2013-09-15 19:12:00,79.2,70.6,30.03,ESE,107,0.0,0.0,75,0.00,,FEW065,0.00,VWS V13.01,2013-09-15 23:12:00,
2013-09-15 19:17:00,78.7,70.9,30.03,ESE,107,0.0,0.0,77,0.00,,FEW065,0.00,VWS V13.01,2013-09-15 23:17:00,
2013-09-15 19:22:00,78.4,71.0,30.03,ESE,107,0.0,0.0,78,0.00,,FEW065,0.00,VWS V13.01,2013-09-15 23:22:00,
2013-09-15 19:27:00,77.9,70.9,30.04,ESE,107,0.0,0.0,79,0.00,,FEW065,0.00,VWS V13.01,2013-09-15 23:27:00,
2013-09-15 19:32:00,77.4,70.8,30.04,ESE,107,0.0,0.0,80,0.00,,FEW065,0.00,VWS V13.01,2013-09-15 23:32:00,
2013-09-15 19:37:00,77.1,70.8,30.04,ESE,107,0.0,0.0,81,0.00,,CLR,0.00,VWS V13.01,2013-09-15 23:37:00,
2013-09-15 19:42:00,76.8,70.9,30.04,ESE,107,0.0,0.0,82,0.00,,CLR,0.00,VWS V13.01,2013-09-15 23:42:00,
2013-09-15 19:47:00,76.5,70.6,30.04,ESE,107,0.0,0.0,82,0.00,,CLR,0.00,VWS V13.01,2013-09-15 23:47:00,
2013-09-15 19:52:00,76.3,70.4,30.04,ESE,107,0.0,0.0,82,0.00,,CLR,0.00,VWS V13.01,2013-09-15 23:52:00,
2013-09-15 19:57:00,76.0,70.1,30.04,ESE,107,0.0,0.0,82,0.00,,CLR,0.00,VWS V13.01,2013-09-15 23:57:00,
2013-09-15 20:02:00,75.6,70.1,30.04,ESE,107,0.0,0.0,83,0.00,,CLR,0.00,VWS V13.01,2013-09-16 00:02:00,
2013-09-15 20:07:00,75.5,70.3,30.05,ESE,107,0.0,0.0,84,0.00,,BKN070,0.00,VWS V13.01,2013-09-16 00:07:00,
2013-09-15 20:12:00,75.3,70.1,30.05,ESE,107,0.0,0.0,84,0.00,,BKN070,0.00,VWS V13.01,2013-09-16 00:12:00,
2013-09-15 20:17:00,75.1,69.9,30.05,ESE,107,0.0,0.0,84,0.00,,BKN070,0.00,VWS V13.01,2013-09-16 00:17:00,
2013-09-15 20:22:00,74.9,70.1,30.05,ESE,107,0.0,0.0,85,0.00,,BKN070,0.00,VWS V13.01,2013-09-16 00:22:00,
2013-09-15 20:28:00,74.8,70.0,30.05,ESE,107,0.0,0.0,85,0.00,,BKN070,0.00,VWS V13.01,2013-09-16 00:28:00,
2013-09-15 20:33:00,74.6,69.8,30.05,ESE,107,0.0,0.0,85,0.00,,BKN070,0.00,VWS V13.01,2013-09-16 00:33:00,
2013-09-15 20:38:00,74.6,69.8,30.05,ESE,107,0.0,0.0,85,0.00,,BKN070,0.00,VWS V13.01,2013-09-16 00:38:00,
2013-09-15 20:43:00,74.5,69.7,30.05,ESE,107,0.0,0.0,85,0.00,,BKN070,0.00,VWS V13.01,2013-09-16 00:43:00,
2013-09-15 20:48:00,74.4,69.9,30.05,ESE,107,0.0,0.0,86,0.00,,BKN070,0.00,VWS V13.01,2013-09-16 00:48:00,
2013-09-15 20:53:00,74.3,69.8,30.06,ESE,107,0.0,0.0,86,0.00,,BKN070,0.00,VWS V13.01,2013-09-16 00:53:00,
2013-09-15 20:58:00,74.1,69.7,30.06,ESE,107,0.0,0.0,86,0.00,,BKN070,0.00,VWS V13.01,2013-09-16 00:58:00,
2013-09-15 21:03:00,74.0,69.6,30.06,ESE,107,0.0,0.0,86,0.00,,BKN070,0.00,VWS V13.01,2013-09-16 01:03:00,
2013-09-15 21:08:00,73.8,69.3,30.06,ESE,107,0.0,0.0,86,0.00,,BKN070,0.00,VWS V13.01,2013-09-16 01:08:00,
2013-09-15 21:13:00,73.7,69.3,30.06,ESE,107,0.0,0.0,86,0.00,,BKN070,0.00,VWS V13.01,2013-09-16 01:13:00,
2013-09-15 21:18:00,73.5,69.1,30.07,ESE,107,0.0,0.0,86,0.00,,BKN070,0.00,VWS V13.01,2013-09-16 01:18:00,
2013-09-15 21:23:00,73.3,69.2,30.07,ESE,107,0.0,0.0,87,0.00,,BKN070,0.00,VWS V13.01,2013-09-16 01:23:00,
2013-09-15 21:28:00,73.3,69.2,30.07,ESE,107,0.0,0.0,87,0.00,,BKN070,0.00,VWS V13.01,2013-09-16 01:28:00,
2013-09-15 21:33:00,73.0,68.9,30.07,ESE,107,0.0,0.0,87,0.00,,BKN070,0.00,VWS V13.01,2013-09-16 01:33:00,
2013-09-15 21:38:00,72.8,68.7,30.07,ESE,107,0.0,0.0,87,0.00,,BKN060,0.00,VWS V13.01,2013-09-16 01:38:00,
2013-09-15 21:43:00,72.7,68.6,30.07,ESE,107,0.0,0.0,87,0.00,,BKN060,0.00,VWS V13.01,2013-09-16 01:43:00,
2013-09-15 21:48:00,72.6,68.8,30.07,ESE,107,0.0,0.0,88,0.00,,BKN060,0.00,VWS V13.01,2013-09-16 01:48:00,
2013-09-15 21:53:00,72.4,68.7,30.07,ESE,107,0.0,0.0,88,0.00,,BKN060,0.00,VWS V13.01,2013-09-16 01:53:00,
2013-09-15 21:58:00,72.3,68.6,30.07,ESE,107,0.0,0.0,88,0.00,,BKN060,0.00,VWS V13.01,2013-09-16 01:58:00,
2013-09-15 22:03:00,72.2,68.4,30.07,ESE,107,0.0,0.0,88,0.00,,BKN060,0.00,VWS V13.01,2013-09-16 02:03:00,
2013-09-15 22:08:00,72.1,68.3,30.07,ESE,107,0.0,0.0,88,0.00,,BKN060,0.00,VWS V13.01,2013-09-16 02:08:00,
2013-09-15 22:13:00,72.0,68.6,30.07,ESE,107,0.0,0.0,89,0.00,,BKN060,0.00,VWS V13.01,2013-09-16 02:13:00,
2013-09-15 22:18:00,72.0,68.6,30.07,ESE,107,0.0,0.0,89,0.00,,BKN060,0.00,VWS V13.01,2013-09-16 02:18:00,
2013-09-15 22:23:00,71.9,68.5,30.07,ESE,107,0.0,0.0,89,0.00,,BKN060,0.00,VWS V13.01,2013-09-16 02:23:00,
2013-09-15 22:28:00,71.8,68.4,30.07,ESE,107,0.0,0.0,89,0.00,,BKN060,0.00,VWS V13.01,2013-09-16 02:28:00,
2013-09-15 22:33:00,71.6,68.2,30.07,ESE,107,0.0,0.0,89,0.00,,BKN060,0.00,VWS V13.01,2013-09-16 02:33:00,
2013-09-15 22:38:00,71.5,68.1,30.07,ESE,107,0.0,0.0,89,0.00,,,0.00,VWS V13.01,2013-09-16 02:38:00,
2013-09-15 22:43:00,71.4,68.0,30.07,ESE,107,0.0,0.0,89,0.00,,,0.00,VWS V13.01,2013-09-16 02:43:00,
2013-09-15 22:48:00,71.3,67.9,30.07,ESE,107,0.0,0.0,89,0.00,,,0.00,VWS V13.01,2013-09-16 02:48:00,
2013-09-15 22:53:00,71.3,68.2,30.07,ESE,107,0.0,0.0,90,0.00,,,0.00,VWS V13.01,2013-09-16 02:53:00,
2013-09-15 22:58:00,71.3,68.2,30.07,ESE,107,0.0,0.0,90,0.00,,,0.00,VWS V13.01,2013-09-16 02:58:00,
2013-09-15 23:03:00,71.3,68.2,30.07,ESE,107,0.0,0.0,90,0.00,,,0.00,VWS V13.01,2013-09-16 03:03:00,
2013-09-15 23:08:00,71.3,68.2,30.07,ESE,107,0.0,0.0,90,0.00,,,0.00,VWS V13.01,2013-09-16 03:08:00,
2013-09-15 23:13:00,71.2,68.1,30.07,ESE,107,0.0,0.0,90,0.00,,,0.00,VWS V13.01,2013-09-16 03:13:00,
2013-09-15 23:18:00,71.1,68.0,30.07,ESE,107,0.0,0.0,90,0.00,,,0.00,VWS V13.01,2013-09-16 03:18:00,
2013-09-15 23:23:00,70.9,67.8,30.07,ESE,107,0.0,0.0,90,0.00,,,0.00,VWS V13.01,2013-09-16 03:23:00,
2013-09-15 23:28:00,70.8,67.7,30.07,South,171,3.0,4.0,90,0.00,,,0.00,VWS V13.01,2013-09-16 03:28:00,
2013-09-15 23:33:00,70.9,68.2,30.08,South,171,0.0,0.0,91,0.00,,,0.00,VWS V13.01,2013-09-16 03:33:00,
2013-09-15 23:38:00,71.1,68.3,30.08,South,171,0.0,3.0,91,0.00,,,0.00,VWS V13.01,2013-09-16 03:38:00,
2013-09-15 23:43:00,70.9,68.2,30.08,South,171,0.0,0.0,91,0.00,,,0.00,VWS V13.01,2013-09-16 03:43:00,
2013-09-15 23:48:00,70.8,68.1,30.07,South,171,0.0,0.0,91,0.00,,,0.00,VWS V13.01,2013-09-16 03:48:00,
2013-09-15 23:53:00,70.6,67.8,30.07,South,171,0.0,0.0,91,0.00,,,0.00,VWS V13.01,2013-09-16 03:53:00,
2013-09-15 23:58:00,70.5,67.8,30.07,South,171,0.0,0.0,91,0.00,,,0.00,VWS V13.01,2013-09-16 03:58:00,